Overview Statistics Trail Chart Weather Telemetry Raw packets
 

This is the latest recevied weather packets stored in our database for station/object N4BBA. If no packets are shown the sender has not sent any weather packets the latest 10 day(s).

<< 25 26 27 28 29 30 31 >>
Time Temp. Humidity Pressure Rain* Wind** Luminosity Snow
1777553342 15° C 98% 1008.7 hPa 0 mm - 111 W/m² -
1777553038 15° C 98% 1008.6 hPa 0 mm - 86 W/m² -
1777552733 15° C 98% 1008.7 hPa 0 mm - 82 W/m² -
1777552429 15° C 98% 1008.8 hPa 0 mm - 88 W/m² -
1777552126 15° C 98% 1008.7 hPa 0 mm - 79 W/m² -
1777551823 15° C 98% 1008.7 hPa 0 mm - 79 W/m² -
1777551521 15° C 98% 1008.9 hPa 0 mm - 73 W/m² -
1777551217 15° C 98% 1009 hPa 0 mm - 60 W/m² -
1777550914 15° C 98% 1008.7 hPa 0 mm - 52 W/m² -
1777550611 15° C 98% 1008.8 hPa 1.78 mm - 54 W/m² -
1777550307 15° C 98% 1008.8 hPa 1.78 mm - 45 W/m² -
1777550003 15° C 98% 1008.8 hPa 0 mm - 37 W/m² -
1777549700 15° C 98% 1008.8 hPa 0 mm - 37 W/m² -
1777549400 15° C 98% 1008.7 hPa 0 mm - 35 W/m² -
1777549098 15° C 98% 1008.8 hPa 0 mm - 45 W/m² -
1777548794 15° C 98% 1008.6 hPa 0 mm - 35 W/m² -
1777548492 15° C 98% 1008.5 hPa 0 mm - 19 W/m² -
1777548188 15° C 98% 1008.4 hPa 0 mm - 24 W/m² -
1777547884 15° C 98% 1008.5 hPa 0 mm - 29 W/m² -
1777547580 15° C 98% 1008.5 hPa 0 mm - 15 W/m² -
1777547278 15° C 98% 1008.4 hPa 0 mm - 12 W/m² -
1777546975 15° C 98% 1008.5 hPa 0 mm - 13 W/m² -
1777546672 15° C 98% 1008.5 hPa 0 mm - 15 W/m² -
1777546368 15° C 98% 1008.2 hPa 0 mm - 7 W/m² -
1777546066 15° C 98% 1008.4 hPa 0 mm - 9 W/m² -

* Rain latest hour (hover to see other rain measurements)
** Current wind speed in m/s (hover to see current wind gust speed)